Content
SEND FEEDBACK

Daily
Averages
Monthly
Summary
Canada

VANCOUVER, BRITISH COLUMBIA


Home > North America > Canada > British Columbia
Elevation: 7 feet     Latitude: 49 11N     Longitude: 123 10W

WEATHER
 
SELECT A DAY
Number of Records: 249,569;   Date Range: 5/15/97 - 8/19/14
 
SHARE

PRINT THIS DATA

[ ← Previous Day ]
WEATHER ALMANAC - OCTOBER 12, 2013
[ Next Day → ]
[ °C ]   °F
Weather ElementAverageHighLow
Temperature49.3 °F53.6 °F (12:55 pm)44.6 °F (8:35 pm)
Dewpoint46.9 °F48.2 °F (4:15 am)42.8 °F (10:55 pm)
Humidity91.7 %100 % (12:35 am)77 % (4:35 pm)
Barometer30.13 in30.21 in (10:55 pm)30.07 in (12:35 am)
Wind Speed4.5 mph11.5 mph (4:15 pm)
Wind Gust16.1 mph (1:35 pm)
Weather ElementAverage
Visibility9.4 mi
Wind DirectionSSW (201.7 °)

Weather ElementTotal
Precipitation---
Heating Degree Days15.9 (Base 65)
Averaged from 69 records on October 12, 2013
WEATHER CONDITIONS BREAKOUT
WIND DIRECTION BREAKOUT
WEATHER BY HOUR - OCTOBER 12, 2013
[ °C ]   °F
Local TimeTemperatureDewpointHumidityBarometerVisibilityWind DirectionWind SpeedGust SpeedPrecipitationEventsConditions
12:35 AM46.4 °F46.4 °F100 %30.07 in10.0 miCalmScattered Clouds
12:55 AM46.4 °F46.4 °F100 %30.07 in9.0 miCalmMostly Cloudy
1:15 AM46.4 °F46.4 °F100 %30.08 in10.0 miCalmMostly Cloudy
1:35 AM46.4 °F46.4 °F100 %30.08 in10.0 miCalmOvercast
1:55 AM46.4 °F46.4 °F100 %30.08 in10.0 miCalmMostly Cloudy
2:15 AM46.4 °F46.4 °F100 %30.08 in10.0 miCalmMostly Cloudy
2:35 AM46.4 °F46.4 °F100 %30.08 in9.0 miCalmPartly Cloudy
2:55 AM46.4 °F46.4 °F100 %30.08 in8.0 miCalmClear
3:15 AM46.4 °F46.4 °F100 %30.08 in9.0 miCalmMostly Cloudy
4:15 AM50.0 °F48.2 °F94 %30.08 in10.0 miNNW (340°)5.8 mphOvercast
4:35 AM50.0 °F48.2 °F94 %30.08 in10.0 miNorth (350°)6.9 mphRainLight Rain
4:55 AM50.0 °F46.4 °F87 %30.08 in9.0 miNorth (350°)6.9 mphRainLight Rain
5:15 AM50.0 °F48.2 °F94 %30.08 in10.0 miNorth (360°)4.6 mphOvercast
5:35 AM50.0 °F48.2 °F94 %30.08 in10.0 miCalmOvercast
5:55 AM50.0 °F46.4 °F87 %30.08 in10.0 miNorth (360°)4.6 mphOvercast
6:15 AM50.0 °F48.2 °F94 %30.09 in10.0 miNorth (350°)5.8 mphOvercast
6:35 AM50.0 °F48.2 °F94 %30.09 in10.0 miNorth (360°)6.9 mphOvercast
6:55 AM50.0 °F48.2 °F94 %30.09 in10.0 miNorth (360°)4.6 mphMostly Cloudy
7:15 AM50.0 °F48.2 °F94 %30.09 in10.0 miNorth (360°)4.6 mphMostly Cloudy
7:35 AM50.0 °F46.4 °F87 %30.10 in10.0 miNorth (360°)4.6 mphMostly Cloudy
7:55 AM50.0 °F46.4 °F87 %30.10 in10.0 miNorth (10°)4.6 mphOvercast
8:15 AM50.0 °F46.4 °F87 %30.10 in10.0 miNNE (20°)4.6 mphOvercast
8:35 AM50.0 °F48.2 °F94 %30.11 in10.0 miNorth (360°)5.8 mphOvercast
8:55 AM50.0 °F48.2 °F94 %30.11 in10.0 miNorth (360°)6.9 mphOvercast
9:15 AM50.0 °F48.2 °F94 %30.12 in10.0 miNorth (350°)9.2 mphOvercast
9:35 AM50.0 °F46.4 °F87 %30.12 in10.0 miNorth (350°)10.4 mphOvercast
9:55 AM50.0 °F48.2 °F94 %30.12 in10.0 miNorth (360°)5.8 mphOvercast
10:15 AM50.0 °F48.2 °F94 %30.12 in10.0 miNorth (360°)6.9 mphOvercast
10:35 AM50.0 °F48.2 °F94 %30.12 in10.0 miNorth (360°)8.1 mphOvercast
10:55 AM50.0 °F46.4 °F87 %30.12 in10.0 miNorth (350°)9.2 mphScattered Clouds
11:15 AM51.8 °F48.2 °F88 %30.12 in10.0 miNorth (350°)10.4 mphPartly Cloudy
11:35 AM51.8 °F48.2 °F88 %30.13 in10.0 miNorth (350°)8.1 mphPartly Cloudy
11:55 AM51.8 °F48.2 °F88 %30.13 in10.0 miNorth (350°)10.4 mphClear
12:15 PM51.8 °F48.2 °F88 %30.13 in10.0 miNNW (340°)8.1 mphClear
12:35 PM51.8 °F48.2 °F88 %30.13 in10.0 miNorth (350°)10.4 mphPartly Cloudy
12:55 PM53.6 °F48.2 °F82 %30.13 in8.0 miNorth (350°)9.2 mphPartly Cloudy
1:15 PM53.6 °F48.2 °F82 %30.13 in8.0 miNorth (350°)8.1 mphScattered Clouds
1:35 PM53.6 °F48.2 °F82 %30.13 in9.0 miNorth (350°)10.4 mph16.1 mphScattered Clouds
1:55 PM53.6 °F48.2 °F82 %30.13 in9.0 miNNW (340°)8.1 mphPartly Cloudy
2:15 PM53.6 °F48.2 °F82 %30.13 in8.0 miNorth (350°)9.2 mphClear
2:35 PM53.6 °F48.2 °F82 %30.13 in8.0 miNNW (340°)8.1 mphClear
2:55 PM53.6 °F48.2 °F82 %30.13 in9.0 miNNW (340°)9.2 mphClear
3:15 PM53.6 °F48.2 °F82 %30.14 in8.0 miNorth (350°)9.2 mphClear
3:35 PM53.6 °F48.2 °F82 %30.14 in8.0 miNorth (350°)10.4 mphScattered Clouds
3:55 PM53.6 °F48.2 °F82 %30.15 in8.0 miNorth (350°)10.4 mphPartly Cloudy
4:15 PM53.6 °F48.2 °F82 %30.15 in8.0 miNorth (350°)11.5 mphClear
4:35 PM53.6 °F46.4 °F77 %30.16 in9.0 miNNW (340°)10.4 mphClear
4:55 PM51.8 °F48.2 °F88 %30.16 in8.0 miNorth (350°)8.1 mphClear
5:15 PM51.8 °F48.2 °F88 %30.16 in7.0 miNorth (350°)4.6 mphClear
5:35 PM51.8 °F48.2 °F88 %30.16 in7.0 miNorth (360°)4.6 mphClear
5:55 PM51.8 °F46.4 °F82 %30.16 in7.0 miCalmClear
6:15 PM50.0 °F46.4 °F87 %30.16 in5.0 miNorth (350°)4.6 mphClear
6:35 PM50.0 °F46.4 °F87 %30.16 in9.0 miCalmClear
6:55 PM48.2 °F46.4 °F93 %30.17 in10.0 miCalmClear
7:15 PM46.4 °F46.4 °F100 %30.17 in10.0 miCalmClear
7:35 PM46.4 °F46.4 °F100 %30.18 in10.0 miCalmClear
7:55 PM46.4 °F44.6 °F93 %30.17 in10.0 miCalmClear
8:15 PM46.4 °F44.6 °F93 %30.18 in10.0 miCalmClear
8:35 PM44.6 °F44.6 °F100 %30.18 in10.0 miCalmClear
8:55 PM44.6 °F44.6 °F100 %30.18 in10.0 miCalmClear
9:15 PM44.6 °F44.6 °F100 %30.19 in10.0 miCalmClear
9:35 PM44.6 °F44.6 °F100 %30.19 in10.0 miCalmClear
9:55 PM44.6 °F44.6 °F100 %30.19 in10.0 miCalmClear
10:15 PM44.6 °F44.6 °F100 %30.20 in10.0 miCalmClear
10:35 PM44.6 °F44.6 °F100 %30.20 in10.0 miCalmClear
10:55 PM44.6 °F42.8 °F93 %30.21 in10.0 miCalmClear
11:15 PM44.6 °F44.6 °F100 %30.21 in10.0 miSouth (180°)3.5 mphClear
11:35 PM44.6 °F44.6 °F100 %30.21 in10.0 miCalmClear
11:55 PM44.6 °F42.8 °F93 %30.21 in10.0 miCalmClear
Hourly data recorded from CZBB, located miles away from Vancouver, British Columbia







STORIES FROM OUR PARTNERS